Погода Лиепая

Погода Лиепая : погода сейчас, прогноз погоды и архив. Всё, что Вы хотите узнать о погоде Лиепая!

Поиск расширенной информации на нашем сайте:

Другие новости

Новости СМИ2

Главная страница сайта

Новости сайта

03.07.2017

Напоминаем, что на нашем специализированном сайте Метеоцентр.Азия вы можете получить высокодетализированные автоматические прогнозы погоды по пунктам России, СНГ и мира в авиационном формате (включающие направление и скорость ветра, видимость, явления погоды, количество и форму облачности, нижнюю и верхнюю границу облачности).


Погода Лиепая - сегодня

Время (UTC), дата Ветер
(°,м/с) 
Видим.   Явления Облачность Т
(°С)
Тd
(°С)
f(%) Тe
(°С)
Pmin
(гПа)
dP
(гПа)
Po
(мм)
O2
(г/м3)
Тmin Tmax R s Состояние
почвы
03 08.09.18 110 (В) 10 км    10/0 средняя, верхняя 
[Ac und|Ci fib]
+15.3 +13.1 87 +22  1015.5  0.1  761  287           
06 08.09.18 140 (ЮВ) 10 км    10/0 средняя, верхняя 
[Ac und|Ci sp]
+16.8 +13.8 82 +24  1016.2  0.7  762  286  +15.1         
09 08.09.18 180 (Ю) 10 км    8/4 600 м средняя 
[Sc|Ac trans]
+20.2 +14.9 72 +28  1017.1  0.9  762  282           
12 08.09.18 230 (ЮЗ) 10 км    8/4 600 м средняя, верхняя 
[Cu med, cong|Ac trans|Ci sp]
+20.1 +16.3 79 +31  1017.8  0.7  763  283           
15 08.09.18 280 (З) 10 км    8/4 600 м средняя 
[Sc|Ac trans]
+18.8 +13.6 72 +25  1018.7  0.9  763  284           
18 08.09.18 280 (З) 10 км    6/3 600 м средняя 
[Sc|Ac trans]
+17.2 +9 58 +18  1020.4  1.7  765  288    +21.3       
21 08.09.18 280 (З) 10 км  {ливн. осадки}  6/4 600 м средняя 
[Sc|Ac trans]
+16.3 +11.2 72 +20  1021.3  0.9  765  288           
00 09.09.18 тихо ()   10 км  {ливн. осадки}  4/0 средняя 
[Ac trans]
+10.2 +8.7 90 +10  1021.7  0.4  766  296           
03 09.09.18 тихо ()   10 км    4/3 600 м средняя 
[Sc|Ac trans]
+10.6 +9.6 94 +11  1021.8  0.1  766  295           
06 09.09.18 тихо ()   10 км    8/3 600 м средняя 
[Sc|Ac trans]
+14.9 +12.5 86 +19  1022.7  0.9  766  290  +10.1    0.0     
09 09.09.18 250 (З) 10 км    4/4 1000 м 
[Cu med, cong]
+18.4 +10.2 59 +20  1023.5  0.8  767  287           
12 09.09.18 250 (З) 10 км    6/3 1000 м средняя, верхняя 
[Cu med, cong|Ac trans|Ci sp]
+18.8 +11.8 64 +22  1023.8  0.3  767  287           
15 09.09.18 260 (З) 10 км    6/0 верхняя 
[Ci sp]
+18.2 +11.9 67 +22  1023.8  767  287           
18 09.09.18 тихо ()   10 км    8/0 средняя 
[Ac trans]
+13.4 +11.4 88 +16  1024.1  0.3  767  292    +19.6       
21 09.09.18 тихо ()   10 км    3/0 средняя 
[Ac trans]
+9.9 +9.1 95 +10  1024.1  767  296           
00 10.09.18 тихо ()   4000 м  дымка  ясно 
+9.6 +9.1 97 +10  1023.8  -0.3  767  297           
03 10.09.18 тихо ()   4000 м  дымка  ясно 
+7.3 +6.9 97 +7  1023.2  -0.6  767  299           
06 10.09.18 тихо ()   1500 м  в посл. час туман  4/0 средняя 
[Ac trans]
+13.1 +12.6 97 +17  1023.2  767  292  +7.1         
09 10.09.18 120 (ЮВ) 20000 м    3/1 1000 м средняя, верхняя 
[Cu hum|Ac trans|Ci fib]
+19.3 +12.7 66 +25  1022.6  -0.6  766  285           
12 10.09.18 230 (ЮЗ) 20000 м    6/3 1000 м средняя, верхняя 
[Cu med, cong|Ac trans|Ci sp]
+19.6 +12.5 64 +24  1021.7  -0.9  766  286           
15 10.09.18 200 (Ю) 20000 м    6/1 600 м средняя, верхняя 
[Cu med, cong|Ac trans|Ci sp]
+18.6 +13.2 71 +25  1021.2  -0.5  765  285           
18 10.09.18 160 (Ю) 10 км    9/8 870 м верхняя 
[Sc|Ci sp]
+14.5 +12.1 85 +20  1020.5  -0.7  765  290    +20.5       
21 10.09.18 160 (Ю) 10 км    6/4 600 м средняя 
[Sc|Ac trans]
+14.6 +11.1 80 +17  1019.7  -0.8  764  289           
00 11.09.18 130 (ЮВ) 10 км    8/3 600 м средняя 
[Sc|Ac trans]
+13.8 +9.6 76 +14  1018.9  -0.8  764  291           
03 11.09.18 160 (Ю) 10 км    9/9 870 м 
[Sc]
+14.2 +10.9 81 +17  1018  -0.9  763  290           
Время (UTC), дата Ветер
(°,м/с) 
Видим.   Явления Облачность Т
(°С)
Тd
(°С)
f(%) Тe
(°С)
Pmin
(гПа)
dP
(гПа)
Po
(мм)
O2
(г/м3)
Тmin Tmax R s Состояние
почвы

Для получения пояснительной информации подведите курсор к названию столбца.

ПОГОДА Лиепая - архив

Всё, что Вы хотите узнать о погоде Лиепая - удобно и подробно!

Выберите нужную дату (начиная с 1 января 2015* года) и нажмите кнопку "Найти".
Будут отображены архивные сводки погоды по пункту Лиепая, начиная с указанной даты.


Отображать данные в формате CSV (для использования в таблицах Excel)


Внимание! Наш архив погоды предназначен исключительно для личного некоммерческого использования в познавательных целях. Если Вам необходимы официальные справки о состоянии погоды (для производственных, юридических, коммерческих и т.п. целей), обращайтесь в органы Росгидромета.

*Примечание: данная дата относится к архиву по метеостанциям СССР (Россия, СНГ, Балтия).
Архив по метеостанциям Зарубежной Европы и Азии (кроме Китая) хранится 10 дней, по другим регионам земного шара (Китай, Африка, Америка, Австралия, Океания) - 1 день.

Лиепая - район местоположения метеостанции


Название, широта, долгота, высота метеостанции:
Лиепая 56.5°ш. 21°д. 7 м над ур. моря [Латвия]

Дополнительная информация

В oтличие oт бoльшинства пoгoдных сайтoв мы публикуем пoдрoбную метеoинфoрмацию в детальнoм прoфессиoнальнoм фoрмате.

Характеристики температуры и влажнoсти вoздуха измеряются на высoте 2 м в тени вдали oт зданий и деревьев.
Скoрoсть ветра измеряется на высoте 10 м (на урoвне рoста челoвека скoрoсть ветра ниже в 1.5-2 раза). Если метеoстанция нахoдится в гoрoде или в лесу, тo скoрoсть ветра занижена на 2-4 м/с пo сравнению с oткрытым местoм. Скoрoсть ветра над акватoриями крупных рек и oзёр, а также на вершинах хoлмoв на 2-5 м/с выше, чем в oбычных услoвиях.
Атмoсфернoе давление в разных тoчках местнoсти мoжет значительнo oтличаться oт давления на метеoстанции, в зависимoсти oт услoвий рельефа (при пoдъёме на 10 м давление пoнижается примернo на 1 мм рт.ст.).